FW3005 Weather Reports


time (UTC)temp
F
wind
direction
speed
knots
gust
knots
rain 1hr
in
rain 24hr
in
rain mn
in
humidity
%
barometer
mb
20260503213002 64 218 3.5 10.4 0.00 0.11 0.11 51 1008.6
20260503211601 63 209 3.5 8.7 0.00 0.11 0.11 50 1008.8
20260503210057 62 188 4.3 9.6 0.00 0.11 0.11 50 1009.1
20260503204602 63 214 5.2 10.4 0.00 0.11 0.11 50 1009.3
20260503203056 62 224 3.5 11.3 0.00 0.11 0.11 51 1009.3
20260503201555 64 216 7.0 13.0 0.00 0.11 0.11 49 1009.3
20260503200053 64 241 5.2 12.2 0.00 0.11 0.11 51 1009.5
20260503194548 62 181 5.2 16.5 0.00 0.11 0.11 54 1010.0
20260503193055 59 207 3.5 11.3 0.00 0.11 0.11 66 1010.1
20260503191543 56 199 4.3 13.9 0.03 0.11 0.11 71 1010.5
20260503190058 54 169 5.2 9.6 0.06 0.11 0.11 75 1010.8
20260503184535 51 152 3.5 9.6 0.07 0.11 0.11 81 1011.2
20260503183037 49 212 2.6 9.6 0.07 0.11 0.11 82 1011.6
20260503181529 49 170 3.5 7.0 0.05 0.08 0.08 82 1012.4
20260503180037 50 216 0.9 6.1 0.02 0.05 0.05 79 1013.8
20260503174525 50 218 1.7 4.3 0.03 0.04 0.04 80 1013.8
20260503173024 49 148 0.9 5.2 0.04 0.04 0.04 83 1014.0
20260503171534 49 209 0.9 3.5 0.03 0.03 0.03 81 1014.3
20260503140118 52 193 0.9 5.2 0.00 0.00 0.00 63 1015.4
20260503081533 43 149 0.0 0.9 0.00 0.01 0.00 65 1016.1
20260503071513 43 146 0.0 2.6 0.00 0.01 0.00 64 1016.1
20260503060106 42 198 0.0 0.9 0.00 0.01 0.00 68 1016.8
20260503054556 41 210 0.0 0.9 0.00 0.01 0.00 71 1017.0
20260503053051 41 207 0.0 0.0 0.00 0.01 0.00 73 1017.1
20260503051557 41 207 0.0 0.0 0.00 0.01 0.00 73 1017.2
20260503050048 41 207 0.0 0.9 0.00 0.01 0.00 74 1017.3
20260503044547 42 207 0.0 0.9 0.00 0.01 0.01 72 1017.4
20260503043050 42 208 0.0 0.0 0.00 0.01 0.01 72 1017.4
20260503041546 42 208 0.0 0.9 0.00 0.01 0.01 72 1017.4
20260503040048 42 209 0.0 0.0 0.00 0.01 0.01 72 1017.6
20260503034545 42 199 0.0 0.0 0.00 0.01 0.01 73 1017.6
20260503033047 42 198 0.0 0.0 0.00 0.01 0.01 72 1017.6
20260503031544 43 198 0.0 0.0 0.00 0.01 0.01 71 1017.6
20260503030044 43 198 0.0 0.0 0.00 0.01 0.01 70 1017.8
20260503024543 44 198 0.0 0.0 0.00 0.01 0.01 67 1017.8
20260503023042 45 198 0.0 0.0 0.00 0.01 0.01 66 1017.7
20260503021548 46 198 0.0 0.0 0.00 0.01 0.01 64 1017.7
20260503020051 46 198 0.0 0.0 0.00 0.01 0.01 61 1017.6
20260503014607 47 198 0.0 0.9 0.00 0.01 0.01 60 1017.5
20260503013042 47 248 0.0 0.0 0.00 0.01 0.01 58 1017.3
20260503011547 49 248 0.0 0.0 0.00 0.01 0.01 56 1017.3
20260503010050 50 248 0.0 0.0 0.00 0.01 0.01 52 1017.3
20260503004552 52 248 0.0 0.9 0.00 0.01 0.01 49 1017.3
20260503003038 53 256 0.0 1.7 0.00 0.01 0.01 47 1017.3
20260503001539 54 298 0.9 5.2 0.00 0.01 0.01 46 1017.4
20260503000041 55 276 0.9 3.5 0.00 0.01 0.01 42 1017.3
20260502234542 56 333 0.0 3.5 0.00 0.01 0.01 44 1017.5
20260502233034 54 273 0.0 4.3 0.00 0.01 0.01 44 1017.6
20260502231537 54 253 0.9 4.3 0.00 0.01 0.01 44 1017.6
20260502230034 54 280 0.0 1.7 0.00 0.01 0.01 42 1017.7
20260502224532 54 34 0.0 2.6 0.00 0.01 0.01 42 1017.8
20260502223036 54 3 0.9 4.3 0.00 0.01 0.01 44 1017.9
20260502221531 54 319 0.0 5.2 0.00 0.01 0.01 43 1017.9
20260502220030 55 316 1.7 7.0 0.00 0.01 0.01 42 1017.9
20260502214529 56 214 3.5 7.8 0.00 0.01 0.01 39 1017.9